Home   Weather   Guiyang   Past weeks

Flag for China Past Weather in Guiyang, Guizhou, China — Yesterday and Last 2 Weeks

Now
64 °F

Broken clouds.


Feels Like: 64 °F
Forecast: 60 / 81 °F
Wind: 3 mph from North

Location: Guiyang Airport

Current Time: Oct 1, 2016 at 9:34:17 AM

Latest Report: Oct 1, 2016 at 9:00 AM


Visibility: N/A

Pressure: 30.09 "Hg (26.55 "Hg at 1067m altitude)

Humidity: 83%

Dew Point: 59 °F

Location of GuiyangLocation

Past Weather in Guiyang — Graph

°F

Guiyang Temperature Yesterday

Maximum temperature yesterday: 72 °F (at 12:00 PM)
Minimum temperature yesterday: 59 °F (at 3:00 AM)
Average temperature yesterday: 66 °F

High & Low Weather Summary for the Past Weeks

 TemperatureHumidityPressure
High88 °F (Sep 26, 3:00 PM)100% (Sep 18, 2:00 AM)30.27 "Hg (Sep 18, 2:00 AM)
Low55 °F (Sep 19, 6:00 AM)42% (Sep 19, 2:00 PM)29.89 "Hg (Sep 24, 3:00 PM)
Average69 °F76%30.04 "Hg
* Reported Sep 16 8:00 AM — Oct 1 8:00 AM, Guiyang, Weather by CustomWeather, © 2016

Note: Actual official high and low records may vary slightly from our data, if they occured in-between our weather recording intervals... More about our weather records

Advertising

Guiyang Weather History for the Previous 24 Hours

Scroll right to see more
 ConditionsComfort  
Time TempWeatherWind HumidityBarometerVisibility
8:00 AM
Sat, Oct 1
63 °FBroken clouds.1 mph88%30.07 "HgN/A
7:00 AM61 °FBroken clouds.3 mph88%30.07 "HgN/A
6:00 AM59 °FPartly cloudy.1 mph100%30.04 "HgN/A
5:00 AM61 °FPartly cloudy.3 mph94%30.04 "Hg5 mi
4:00 AM61 °FPartly cloudy.1 mph100%30.04 "Hg5 mi
3:00 AM61 °FPartly cloudy.1 mph100%30.04 "Hg4 mi
2:00 AM61 °FPassing clouds.1 mph100%30.04 "HgN/A
1:00 AM63 °FPartly cloudy.1 mph94%30.04 "HgN/A
12:00 AM63 °FPassing clouds.3 mph94%30.04 "HgN/A
11:00 PM
Fri, Sep 30
64 °FPartly cloudy.1 mph88%30.04 "HgN/A
10:00 PM66 °FPartly cloudy.1 mph83%30.04 "HgN/A
9:00 PM66 °FPartly cloudy.1 mph83%30.01 "HgN/A
8:00 PM68 °FPartly cloudy.1 mph78%29.98 "HgN/A
7:00 PM70 °FPartly cloudy.1 mph73%29.95 "HgN/A
6:00 PM70 °FBroken clouds.6 mph73%29.95 "HgN/A
5:00 PM72 °FBroken clouds.6 mph69%29.95 "HgN/A
4:00 PM72 °FBroken clouds.6 mph69%29.95 "HgN/A
3:00 PM72 °FMore clouds than sun.6 mph69%29.98 "HgN/A
2:00 PM72 °FMostly cloudy.6 mph69%29.98 "HgN/A
1:00 PM72 °FMostly cloudy.6 mph69%30.01 "HgN/A
12:00 PM72 °FMostly cloudy.8 mph69%30.01 "HgN/A
11:00 AM68 °FMore clouds than sun.6 mph78%30.04 "HgN/A
10:00 AM66 °FMore clouds than sun.3 mph83%30.04 "HgN/A
9:00 AM64 °FMore clouds than sun.1 mph88%30.04 "HgN/A
Weather by CustomWeather, © 2016

See weather overviewHow to use our weather pages